Theta_e
291 288 287 289 289 287 286 285 285 287 290 290 289 289 291 294 291 291 293 293 294 294 299 297 297 297 297 300 301 303 305 305 305 305 304 304 304 302 301 302 303 304 305 305
288 286 291 291 289 288 286 285 286 288 289 289 289 289 293 292 295 295 296 296 295 297 295 294 295 295 296 299 301 302 304 304 305 308 303 302 300 297 298 297 298 299 301 301
286 289 291 291 287 287 286 285 285 287 288 287 286 285 288 291 292 294 294 296 296 297 298 296 293 294 296 298 300 302 303 303 305 305 295 294 294 294 293 294 293 293 296 296
288 291 290 288 287 289 284 288 288 286 286 282 286 280 286 289 290 292 294 294 295 297 296 295 293 293 294 297 300 302 302 302 303 298 298 298 298 295 295 296 293 291 293 292
287 288 288 287 288 289 287 289 287 286 285 283 283 282 285 287 289 291 295 296 296 296 295 295 293 295 295 297 299 301 301 302 302 299 301 300 298 295 294 292 290 289 289 289
287 290 291 290 290 290 290 288 287 285 284 279 283 283 284 285 289 291 294 295 296 294 294 293 293 293 293 296 299 300 300 300 298 299 299 300 299 291 291 289 288 287 287 286
286 288 289 291 288 289 288 286 279 277 276 279 282 282 288 289 291 292 294 296 294 294 294 293 291 291 292 295 297 299 299 298 296 298 298 299 295 293 293 290 289 286 285 284
283 281 288 291 290 288 286 286 280 274 273 277 281 279 285 290 292 292 292 292 292 293 293 293 292 291 292 294 296 298 298 298 295 295 296 295 294 294 293 292 290 288 287 285
281 282 287 289 290 292 286 284 288 282 270 275 280 282 287 290 291 291 293 292 291 292 293 293 291 290 291 294 295 297 298 298 295 295 294 293 292 292 292 290 288 287 286 284
287 282 286 287 289 289 288 290 283 281 273 271 278 279 283 287 291 291 291 292 293 293 293 291 290 289 291 293 295 297 298 297 295 295 294 292 292 291 290 288 286 285 284 283
290 286 282 285 285 285 286 284 284 284 281 275 273 280 286 289 290 291 292 293 293 293 293 292 289 289 291 292 293 296 296 295 293 293 292 290 289 289 288 287 285 284 283 282
291 288 282 283 285 286 284 285 286 280 277 278 278 284 288 290 292 291 292 292 292 292 292 290 289 288 289 291 292 294 294 292 292 292 291 290 289 287 286 285 284 283 282 282
291 287 276 282 284 283 283 284 286 284 280 278 278 284 288 288 290 290 291 291 292 291 290 289 287 287 288 289 290 292 292 292 290 289 289 288 287 286 286 284 283 282 282 281
296 289 284 283 283 285 282 283 287 288 282 284 282 287 291 289 290 291 292 292 292 292 290 288 287 286 287 288 289 290 290 291 288 288 287 287 286 286 286 284 283 282 281 280
295 286 288 289 288 285 285 284 286 286 288 284 287 287 291 293 293 295 295 292 292 292 290 289 288 288 286 286 287 289 289 289 288 287 286 286 285 286 285 283 282 281 281 281
294 285 288 286 288 288 284 285 286 287 288 288 289 288 296 296 292 291 293 295 295 293 293 292 291 288 286 286 287 288 288 288 287 287 286 286 284 284 283 282 281 280 280 280
290 287 285 283 287 286 282 286 288 288 288 288 285 290 295 294 294 293 293 293 294 295 295 296 293 291 289 288 288 287 288 287 286 286 286 284 283 283 283 282 281 280 279 279
286 285 286 284 284 278 288 292 292 291 291 292 291 293 295 296 296 294 297 295 295 295 295 295 295 293 291 289 287 288 286 285 284 285 284 283 283 282 282 281 280 280 280 279
290 286 283 282 282 284 285 287 286 287 288 294 293 294 296 297 289 294 297 294 297 297 295 295 294 293 291 288 286 285 284 283 283 284 283 283 283 281 281 280 280 280 279 279
288 290 285 282 279 277 283 289 290 291 285 292 293 294 294 292 287 293 291 289 291 291 290 290 289 289 288 286 284 283 282 282 282 283 283 283 282 281 280 281 280 280 280 280
282 285 283 284 282 285 287 284 288 284 284 281 284 292 288 290 294 291 288 290 287 286 287 286 285 286 285 283 282 281 281 281 281 281 281 281 282 281 281 281 281 280 279 279
280 279 281 283 281 280 286 285 286 290 283 282 285 288 288 289 289 287 286 286 286 285 284 283 282 281 280 280 281 279 279 279 280 280 279 279 280 281 281 280 280 280 280 279
279 285 284 285 285 289 289 289 291 290 289 286 286 287 286 286 286 286 286 284 284 283 283 280 279 278 278 277 279 278 277 278 278 278 278 279 281 281 281 281 280 280 280 279
283 285 284 284 282 285 290 289 287 286 286 286 287 286 285 286 285 284 284 283 283 278 278 276 277 277 275 275 277 277 277 278 279 279 280 281 281 281 282 282 281 281 280 280
280 282 282 281 285 285 288 287 288 289 287 285 284 285 285 285 284 283 281 278 278 277 276 276 276 276 275 276 277 280 282 283 282 282 281 281 282 282 281 281 282 281 282 283
282 281 280 280 285 286 287 284 284 285 286 285 282 282 282 283 283 280 278 278 278 278 276 276 275 276 276 276 276 278 280 281 280 278 279 279 280 279 277 277 275 280 280 283
Wind_Speed
4 5 7 13 6 3 5 3 3 4 3 3 8 12 12 12 6 11 13 13 13 16 18 10 12 12 10 9 10 11 11 10 9 5 4 4 4 3 2 2 4 5 7 8
5 6 10 7 5 4 3 3 5 5 3 4 6 16 14 8 13 15 17 17 17 14 9 9 11 12 14 14 13 13 13 13 11 7 4 3 4 2 2 2 4 4 6 7
8 5 5 7 5 6 4 6 6 7 3 3 6 9 8 7 10 10 13 17 12 19 19 11 12 15 12 15 17 16 15 14 11 9 7 5 5 4 3 3 3 3 5 6
7 4 6 4 5 8 6 9 5 3 3 5 1 8 9 8 10 8 14 12 19 20 13 7 11 13 16 19 14 15 14 15 12 13 11 10 6 6 4 6 4 5 4 5
9 10 7 6 8 8 7 6 7 3 3 3 2 4 10 2 9 12 17 16 16 12 9 11 10 14 15 12 14 13 14 13 13 14 13 10 8 4 5 6 9 6 4 4
3 1 6 8 3 4 10 7 7 5 2 5 9 8 7 7 9 7 7 11 9 7 8 9 7 7 7 10 13 14 16 15 13 15 14 15 13 10 9 8 7 5 4 3
2 5 2 4 7 4 2 6 1 3 1 11 4 5 17 6 9 9 11 15 5 5 6 7 8 7 6 11 12 14 16 16 16 16 15 14 13 13 14 14 10 10 7 4
8 8 11 8 10 10 10 9 8 9 6 5 3 11 11 10 8 11 11 10 2 3 5 6 7 7 9 11 13 14 17 15 15 15 14 12 12 9 8 12 10 9 10 9
6 8 2 3 2 10 7 9 5 2 2 3 7 11 12 13 15 8 14 9 6 9 8 10 7 6 7 9 12 14 16 14 15 15 12 11 11 11 11 11 10 8 8 9
6 4 2 1 2 1 7 6 3 1 4 5 7 7 12 5 9 11 12 11 8 8 8 7 6 7 6 7 9 11 13 15 15 14 13 11 12 11 10 10 12 11 8 10
6 3 2 3 8 10 4 5 2 4 5 7 3 10 9 12 9 9 9 6 5 7 7 7 6 5 6 5 8 11 12 12 13 14 13 13 11 11 11 11 11 11 11 12
9 3 9 12 3 4 2 6 12 6 6 3 3 17 3 7 7 6 8 4 4 4 5 4 5 5 6 8 9 11 11 12 14 13 12 13 12 13 12 11 12 12 13 12
9 5 1 7 1 2 6 6 5 4 4 10 8 16 2 4 7 4 6 4 6 5 4 3 4 7 8 8 9 10 11 12 12 13 13 13 14 14 14 13 13 13 13 12
9 5 9 14 8 6 7 7 15 16 7 22 11 30 22 4 7 8 8 6 7 8 7 6 7 8 8 9 10 11 11 12 13 14 14 15 15 15 14 14 14 15 15 15
6 10 13 20 7 3 7 8 14 17 25 15 30 22 33 15 16 16 14 8 9 11 8 9 10 9 8 9 10 11 12 13 14 15 15 15 12 12 12 13 13 13 14 14
4 5 12 19 18 18 10 8 10 23 25 21 33 29 31 22 8 7 14 15 15 12 12 11 13 9 10 12 13 12 14 14 14 15 16 13 13 13 13 12 14 14 14 14
5 3 6 21 17 10 10 27 28 16 15 23 20 32 19 18 18 9 11 13 16 14 14 14 11 11 11 14 14 16 13 12 15 15 13 14 14 14 14 14 14 15 16 15
6 5 5 11 4 15 13 9 25 29 28 22 22 28 26 22 12 9 16 12 16 13 13 12 12 10 10 7 10 8 10 13 14 14 14 14 15 15 14 15 16 15 15 16
17 10 6 5 8 10 6 9 9 13 25 21 25 31 31 23 2 20 12 13 19 15 9 8 6 6 6 8 9 11 10 11 12 14 13 14 14 14 13 14 14 12 13 13
20 23 17 16 19 13 5 11 10 7 14 11 19 26 25 4 7 17 2 2 3 5 5 7 7 5 5 5 8 11 11 11 12 11 11 11 12 13 14 13 13 11 11 10
4 7 18 18 16 9 8 6 2 11 8 2 5 13 4 7 10 4 3 6 2 3 6 5 5 6 5 4 6 6 7 9 6 8 9 10 10 12 11 11 9 11 11 10
9 6 7 10 15 12 5 4 11 5 0 4 4 6 8 8 7 5 5 6 6 4 2 2 0 1 2 3 5 6 6 7 9 9 10 10 10 9 10 12 10 11 11 11
9 7 3 7 2 5 4 6 4 4 5 5 5 4 4 4 5 4 5 3 4 5 4 2 4 5 4 4 5 7 4 8 10 10 9 10 10 10 11 12 12 10 9 9
5 4 4 4 6 7 12 6 5 3 9 4 6 3 2 4 4 4 3 5 5 4 2 1 5 6 5 3 4 4 7 9 10 11 11 11 11 11 10 8 9 9 9 8
3 4 4 7 11 9 13 5 6 8 8 7 4 4 6 6 5 3 1 1 1 2 4 3 3 4 6 5 6 5 5 7 9 9 8 9 7 9 9 5 7 7 7 9
7 7 5 8 6 5 8 0 4 6 10 8 6 4 5 4 4 3 3 2 2 3 2 3 5 6 7 7 7 6 5 6 8 8 6 6 6 6 6 7 5 6 6 7
Wind_Direction
2 93 197 211 182 136 139 165 208 245 240 198 234 261 261 269 244 255 254 249 245 240 249 211 206 197 187 191 187 187 180 178 163 159 154 169 169 147 121 130 131 132 138 134
44 215 226 121 158 143 152 155 254 279 219 182 277 268 265 236 251 235 243 246 242 245 237 218 201 189 195 191 191 187 190 180 181 172 149 151 151 125 124 135 127 151 141 144
171 213 118 147 155 160 200 178 224 223 344 251 333 281 264 272 251 257 248 244 246 237 243 227 193 203 193 195 192 190 188 183 183 165 123 108 91 87 125 160 136 137 141 148
222 211 160 171 188 151 229 205 172 169 64 251 84 286 283 255 251 248 258 235 242 241 240 225 198 201 202 208 191 188 184 180 177 164 165 176 169 160 181 170 153 142 137 146
236 170 175 183 197 162 223 127 154 130 164 351 193 271 258 30 278 249 248 249 247 245 226 236 212 212 212 191 188 184 177 181 176 179 181 181 178 153 150 141 142 136 121 145
236 340 163 193 120 153 149 79 55 52 85 279 181 179 214 187 217 262 248 247 242 240 227 233 232 199 195 179 180 181 179 184 175 181 184 187 178 151 149 150 150 151 148 146
134 208 193 149 90 54 127 111 312 332 16 236 345 195 257 280 242 229 250 267 238 232 227 224 205 204 183 184 182 183 184 187 183 185 185 183 171 168 170 165 165 158 158 169
186 261 165 193 188 168 197 166 170 202 194 250 54 237 253 238 280 252 264 275 287 177 240 250 251 194 189 188 185 186 192 189 185 185 186 178 167 176 174 175 168 175 174 171
173 267 226 166 155 152 194 210 190 110 90 31 225 277 281 257 266 264 257 256 245 237 242 239 228 221 186 188 191 190 194 190 184 186 178 178 173 173 174 171 166 171 165 160
217 270 195 186 135 338 174 170 88 346 188 237 266 266 239 286 250 252 260 258 259 221 233 235 224 207 195 188 185 189 194 193 183 179 176 178 177 173 168 166 171 166 152 155
160 156 222 150 209 168 150 207 189 144 166 187 254 259 215 227 250 271 270 274 262 245 227 224 216 209 190 179 180 188 186 182 181 178 172 167 173 173 167 174 171 167 156 158
208 155 249 226 242 206 264 219 181 161 222 248 181 266 183 233 250 246 265 258 287 261 261 243 224 199 189 195 187 192 189 185 181 178 176 177 172 172 171 173 170 164 166 167
179 175 328 314 325 328 213 193 186 110 74 214 190 259 9 327 327 277 279 292 268 262 234 248 229 215 200 205 198 193 192 189 179 176 176 177 178 177 179 175 169 167 162 161
159 150 195 225 207 137 185 198 204 196 200 241 221 258 255 305 324 317 298 251 257 258 245 239 237 233 213 207 203 199 197 189 178 179 182 186 185 182 181 174 170 169 168 164
224 200 215 244 249 236 204 182 199 210 229 222 252 243 261 253 242 251 264 273 251 251 219 223 237 228 215 212 211 206 202 193 180 185 188 192 183 180 176 172 170 167 170 170
218 256 201 247 241 227 238 232 214 209 224 234 244 248 254 253 227 228 234 254 272 263 254 244 233 218 211 213 216 206 204 196 186 190 194 183 176 172 173 171 169 168 170 168
236 187 205 241 242 224 234 228 228 227 218 214 231 239 257 257 248 247 246 231 244 253 254 263 248 226 218 214 206 208 199 180 188 193 187 180 175 176 175 169 169 174 172 166
263 265 216 249 154 225 235 228 225 230 238 226 245 256 259 256 265 241 245 253 253 248 248 251 254 241 229 213 197 188 176 183 187 191 186 179 178 178 174 172 176 175 172 173
218 230 254 248 231 278 307 235 179 183 246 232 231 248 255 262 307 269 263 220 247 259 259 256 259 255 232 203 178 167 170 176 184 193 189 181 176 172 170 175 175 171 168 167
221 221 233 250 252 255 250 251 186 125 244 222 209 241 250 170 221 264 10 356 329 341 327 311 301 278 257 220 159 161 172 173 190 187 181 170 166 166 171 169 167 164 163 160
178 218 231 235 241 238 241 236 176 180 231 219 208 237 187 193 221 203 236 276 207 245 286 307 308 282 279 156 146 156 147 178 152 133 138 150 158 159 160 151 148 146 142 137
240 205 211 234 242 255 177 106 187 206 233 185 229 226 209 219 231 241 227 237 275 295 324 13 21 21 36 103 113 126 144 133 126 130 133 137 138 142 141 141 140 142 140 143
234 210 237 224 187 309 298 296 313 326 274 236 239 254 223 197 234 300 299 300 304 319 328 22 121 97 48 71 116 128 144 128 122 123 126 126 129 136 141 139 141 141 146 151
265 209 227 322 303 260 274 233 204 180 249 268 268 271 232 254 246 238 301 328 335 340 327 110 113 99 66 50 73 117 135 128 129 134 138 137 138 140 141 144 154 152 162 168
242 121 201 262 280 290 265 240 289 260 237 253 244 246 253 243 254 223 238 215 95 28 340 11 54 94 88 75 70 64 100 124 125 127 130 133 138 145 149 140 163 174 182 185
187 228 213 249 217 225 274 31 343 289 255 250 228 235 231 234 225 120 85 60 57 83 62 62 74 77 65 75 75 61 67 108 120 117 122 128 133 127 130 131 104 83 134 167